+ View the NASA Portal
+ Center for Near-Earth Object Studies
IMPORTANT:
The SSD Announcement email list is now available. Major changes are coming in the near future, including possible hostname and/or URL changes. To be notified of such changes, subscribe to this email list.
Please visit
this page
for more details.
Don't show this message again
JPL Small-Body Database Browser
Search:
[
help
]
379612 (2011 CC75)
Classification:
Main-belt Asteroid
SPK-ID:
2379612
[
Ephemeris
|
Orbit Diagram
|
Orbital Elements
|
Mission Design
|
Physical Parameters
|
Discovery Circumstances
|
Close-Approach Data
]
[ show orbit diagram ]
Orbital Elements at Epoch 2458600.5 (2019-Apr-27.0) TDB
Reference:
JPL 12
(heliocentric ecliptic J2000)
Element
Value
Uncertainty (1-sigma)
Units
e
.09445612443620427
1.2524e-07
a
2.571675073517767
6.7178e-08
au
q
2.328764612764088
3.6786e-07
au
i
13.80581595291591
1.1039e-05
deg
node
328.2375024683151
2.1398e-05
deg
peri
278.3042749982674
0.00023879
deg
M
270.562460139326
0.00027615
deg
t
p
2458974.731132491257
(2020-May-05.23113249)
0.0011687
TDB
period
1506.338478302562
4.12
5.9023e-05
1.616e-07
d
yr
n
.2389901109116398
9.3644e-09
deg/d
Q
2.814585534271446
7.3523e-08
au
Orbit Determination Parameters
# obs. used (total)
219
data-arc span
5329 days (14.59 yr)
first obs. used
2004-08-08
last obs. used
2019-03-12
planetary ephem.
DE431
SB-pert. ephem.
SB431-N16
condition code
0
norm. resid. RMS
.50985
source
ORB
producer
Otto Matic
solution date
2019-Jul-14 13:56:47
Additional Information
Earth MOID
= 1.36253 au
Jupiter MOID
= 2.36123 au
T_jup
= 3.383
[ show covariance matrix ]
[
Ephemeris
|
Orbit Diagram
|
Orbital Elements
|
Mission Design
|
Physical Parameters
|
Discovery Circumstances
|
Close-Approach Data
]
Physical Parameter Table
Parameter
Symbol
Value
Units
Sigma
Reference
Notes
absolute magnitude
H
16.2
n/a
MPO427886
379612 (2011 CC75)
Discovered 2004-Aug-08 by LINEAR at Socorro
Reference:
Last Updated:
2013-11-20
[ show close-approach data ]
Alternate Designations
2011 CC75
= 2004 PM73
[
Ephemeris
|
Orbit Diagram
|
Orbital Elements
|
Mission Design
|
Physical Parameters
|
Discovery Circumstances
|
Close-Approach Data
]
2019-Dec-16 13:49 UT
(server date/time)
Site Manager:
Ryan S. Park
Webmaster
:
Alan B. Chamberlin